Weather History for Mobile Downtown, AL

Change the Weather History Date:

Sunday, February 17, 2013

  Actual Average Record
Temperature  
Mean Temperature 40 °F -  
Max Temperature 51 °F 62 °F 71 °F (2006)
Min Temperature 28 °F 43 °F 26 °F (2007)
Degree Days  
Heating Degree Days 26    
Moisture  
Dew Point 24 °F    
Average Humidity 54    
Maximum Humidity 85    
Minimum Humidity 26    
Precipitation  
Precipitation 0.00 in - - ()
Sea Level Pressure  
Sea Level Pressure 30.34 in    
Wind  
Wind Speed 5 mph (SSE)    
Max Wind Speed 9 mph    
Max Gust Speed -    
Visibility 10 miles    
Events      
Averages and records for this station are not official NWS values.
T = Trace of Precipitation, MM = Missing Value Source: NWS Daily Summary

Daily Weather History Graph

Daily Weather History Graph

Search for Another Location

Airport:

Trip Planner

Search our weather history database for the weather conditions in past years. The results will help you decide how hot, cold, wet, or windy it might be!

Date:

Astronomy

Feb. 17, 2013 Rise Set
Actual Time 6:30 AM CST 5:42 PM CST
Civil Twilight 6:06 AM CST 6:06 PM CST
Nautical Twilight 5:38 AM CST 6:34 PM CST
Astronomical Twilight 5:10 AM CST 7:02 PM CST
Moon 10:55 AM CST (2/17) 12:06 AM CST (2/17)
Length of Visible Light 12h 00m
Length of Day
11h 11m
Waxing Crescent, 49% of the Moon is Illuminated
Feb 17
Waxing Crescent
Feb 17
First Quarter
Feb 25
Full
Mar 4
Last Quarter
Mar 11
New

Hourly Weather History & Observations

Time (CST) Temp. Windchill Dew Point Humidity Pressure Visibility Wind Dir Wind Speed Gust Speed Precip Events Conditions
12:53 AM 33.1 °F 26.9 °F 21.9 °F 64% 30.32 in 10.0 mi NNW 6.9 mph - N/A   Clear
1:53 AM 33.1 °F 28.7 °F 21.9 °F 64% 30.32 in 10.0 mi NW 4.6 mph - N/A   Clear
2:53 AM 32.0 °F 28.7 °F 23.0 °F 69% 30.32 in 10.0 mi North 3.5 mph - N/A   Clear
3:53 AM 30.9 °F - 23.0 °F 72% 30.33 in 10.0 mi Calm Calm - N/A   Clear
4:53 AM 30.0 °F 26.5 °F 23.0 °F 75% 30.35 in 10.0 mi NW 3.5 mph - N/A   Clear
5:53 AM 28.0 °F - 24.1 °F 85% 30.35 in 10.0 mi Calm Calm - N/A   Clear
6:53 AM 30.0 °F - 25.0 °F 82% 30.36 in 10.0 mi Calm Calm - N/A   Clear
7:53 AM 39.0 °F 34.0 °F 24.1 °F 55% 30.39 in 10.0 mi ENE 6.9 mph - N/A   Clear
8:53 AM 41.0 °F 36.4 °F 21.9 °F 47% 30.41 in 10.0 mi East 6.9 mph - N/A   Clear
9:53 AM 43.0 °F 39.5 °F 19.9 °F 40% 30.42 in 10.0 mi ESE 5.8 mph - N/A   Clear
10:53 AM 44.1 °F 42.5 °F 19.0 °F 37% 30.42 in 10.0 mi Variable 3.5 mph - N/A   Clear
11:53 AM 46.0 °F 43.9 °F 18.0 °F 33% 30.38 in 10.0 mi Variable 4.6 mph - 0.00 in   Clear
12:53 PM 50.0 °F - 16.0 °F 26% 30.34 in 10.0 mi East 5.8 mph - N/A   Clear
1:53 PM 51.1 °F - 21.0 °F 31% 30.32 in 10.0 mi ESE 6.9 mph - N/A   Clear
2:53 PM 51.1 °F - 23.0 °F 33% 30.31 in 10.0 mi SSE 8.1 mph - N/A   Clear
3:53 PM 51.1 °F - 21.9 °F 32% 30.30 in 10.0 mi South 8.1 mph - N/A   Clear
4:53 PM 50.0 °F - 25.0 °F 38% 30.30 in 10.0 mi SSE 9.2 mph - N/A   Clear
5:53 PM 46.9 °F - 27.0 °F 46% 30.30 in 10.0 mi Variable 3.5 mph - N/A   Clear
6:53 PM 45.0 °F 42.6 °F 28.0 °F 52% 30.30 in 10.0 mi SSW 4.6 mph - N/A   Clear
7:53 PM 41.0 °F 39.0 °F 30.9 °F 67% 30.31 in 10.0 mi SSW 3.5 mph - N/A   Clear
8:53 PM 44.1 °F 41.5 °F 32.0 °F 63% 30.32 in 10.0 mi SSW 4.6 mph - N/A   Clear
9:53 PM 45.0 °F 42.6 °F 32.0 °F 60% 30.33 in 10.0 mi SSW 4.6 mph - N/A   Clear
11:53 PM 46.0 °F 43.9 °F 36.0 °F 68% 30.31 in 10.0 mi South 4.6 mph - N/A   Clear